• Join FlightAware (Why Join?)
  • Login
  • US Flag GB Flag 
03:56 EDT


 

Airport Tracker/Info


-or-


 

Live Flight TrackerFlight Track Log ✈ SWA286 ✈ 16-Apr-2013 ✈ KBNA - KDEN

Flight Track Log - Related Links

Times and Time Zones

All times are in EDT time to prevent confusion due to time zone crossing. See the SWA286 flight status page for this flight to view local times or setup timezone preferences in your user account.

Time Position Orientation Groundspeed Altitude Reporting Facility
EDT Latitude Longitude Course Direction KTS MPH feet Rate Location/Type
16:43 36.1000 -86.6833 238° Southwest 165 190 1,500  Level Nashville TRACON
16:44 36.0833 -86.7167 238° Southwest 176 203 2,400 1,620 Climbing Nashville TRACON
16:45 36.1000 -86.7833 287° West 230 265 4,000 1,200 Climbing Nashville TRACON
16:46 36.1167 -86.8833 282° West 234 269 5,100 2,280 Climbing Nashville TRACON
16:48 36.1636 -87.0150 294° West 253 291 11,000 2,580 Climbing Memphis Center
16:49 36.1931 -87.1114 291° West 283 326 12,600 2,400 Climbing Memphis Center
16:50 36.2272 -87.2233 291° West 335 386 15,900 3,060 Climbing Memphis Center
16:51 36.2575 -87.3508 286° West 352 405 18,800 2,760 Climbing Memphis Center
16:52 36.2836 -87.4761 285° West 365 420 21,500 2,400 Climbing Memphis Center
16:53 36.3008 -87.6017 280° West 376 433 23,700 2,100 Climbing Memphis Center
16:54 36.2936 -87.7383 266° West 389 448 25,800 2,400 Climbing Memphis Center
16:55 36.2922 -87.8775 269° West 406 467 28,500 2,340 Climbing Memphis Center
16:56 36.2947 -88.0111 271° West 401 461 30,500 1,800 Climbing Memphis Center
16:57 36.2950 -88.1322 270° West 401 461 32,200 1,920 Climbing Memphis Center
16:58 36.2950 -88.2583 270° West 390 449 34,400 1,200 Climbing Memphis Center
16:59 36.2972 -88.3922 271° West 390 449 34,700 600 Climbing Memphis Center
17:00 36.2972 -88.5339 270° West 397 457 35,700 1,200 Climbing Memphis Center
17:01 36.2992 -88.6728 271° West 404 465 37,200 1,140 Climbing Memphis Center
17:02 36.3322 -88.8036 287° West 404 465 38,000 360 Climbing Memphis Center
17:03 36.3631 -88.9344 286° West 399 459 38,000  Level Memphis Center
17:04 36.3956 -89.0603 288° West 394 453 38,000  Level Memphis Center
17:05 36.4303 -89.1911 288° West 394 453 38,000  Level Memphis Center
17:06 36.4608 -89.3275 286° West 404 465 38,000  Level Memphis Center
17:07 36.4972 -89.4767 287° West 410 472 38,000  Level Memphis Center
17:08 36.5253 -89.6028 286° West 405 466 38,000  Level Memphis Center
17:09 36.5553 -89.7292 286° West 395 455 38,000  Level Memphis Center
17:10 36.5869 -89.8633 286° West 395 455 38,000  Level Memphis Center
17:11 36.6167 -89.9925 286° West 395 455 38,000  Level Memphis Center
17:12 36.6483 -90.1242 287° West 395 455 38,000  Level Memphis Center
17:13 36.6797 -90.2561 287° West 395 455 38,000  Level Memphis Center
17:14 36.7089 -90.3881 285° West 395 455 38,000  Level Memphis Center
17:15 36.7381 -90.5175 286° West 395 455 38,000  Level Memphis Center
17:16 36.7711 -90.6497 287° West 395 455 38,000  Level Memphis Center
17:17 36.8000 -90.7819 285° West 395 455 38,000  Level Memphis Center
17:19 36.8617 -91.0497 286° West 401 461 38,000  Level Kansas City Center
17:20 36.8950 -91.1914 286° West 401 461 38,000  Level Kansas City Center
17:21 36.9253 -91.3256 286° West 400 460 38,000  Level Kansas City Center
17:22 36.9547 -91.4617 285° West 402 463 38,000  Level Kansas City Center
17:23 36.9842 -91.5975 285° West 403 464 38,000  Level Kansas City Center
17:24 37.0139 -91.7325 285° West 402 463 38,000  Level Kansas City Center
17:25 37.0444 -91.8681 286° West 402 463 38,000  Level Kansas City Center
17:26 37.0806 -92.0306 286° West 402 463 38,000  Level Kansas City Center
17:27 37.1100 -92.1675 285° West 403 464 38,000  Level Kansas City Center
17:28 37.1394 -92.3044 285° West 404 465 38,000  Level Kansas City Center
17:29 37.1697 -92.4428 285° West 407 468 38,000  Level Kansas City Center
17:30 37.1981 -92.5822 284° West 409 471 38,000  Level Kansas City Center
17:31 37.2281 -92.7214 285° West 410 472 38,000  Level Kansas City Center
17:32 37.2589 -92.8622 285° West 412 474 38,000  Level Kansas City Center
17:33 37.2864 -93.0028 284° West 413 475 38,000  Level Kansas City Center
17:34 37.3208 -93.1658 285° West 405 466 38,000  Level Kansas City Center
17:35 37.3500 -93.3053 285° West 406 467 38,000  Level Kansas City Center
17:36 37.3842 -93.4397 288° West 404 465 38,000  Level Kansas City Center
17:37 37.4231 -93.5744 290° West 405 466 38,000  Level Kansas City Center
17:38 37.4619 -93.7097 290° West 408 470 38,000  Level Kansas City Center
17:39 37.4994 -93.8453 289° West 409 471 38,000  Level Kansas City Center
17:40 37.5364 -93.9800 289° West 407 468 38,000  Level Kansas City Center
17:41 37.5789 -94.1369 289° West 405 466 38,000  Level Kansas City Center
17:42 37.6158 -94.2725 289° West 407 468 38,000  Level Kansas City Center
17:44 37.6508 -94.4053 288° West 403 464 38,000  Level Kansas City Center
17:45 37.6900 -94.5472 289° West 407 468 38,000  Level Kansas City Center
17:46 37.7253 -94.6769 289° West 408 470 38,000  Level Kansas City Center
17:47 37.7656 -94.8286 289° West 408 470 38,000  Level Kansas City Center
17:48 37.8003 -94.9600 289° West 410 472 38,000  Level Kansas City Center
17:49 37.8397 -95.1131 288° West 410 472 38,000  Level Kansas City Center
17:50 37.8750 -95.2478 288° West 408 470 38,000  Level Kansas City Center
17:51 37.9108 -95.3833 289° West 406 467 38,000  Level Kansas City Center
17:52 37.9481 -95.5269 288° West 410 472 38,000  Level Kansas City Center
17:53 37.9878 -95.6794 288° West 406 467 38,000  Level Kansas City Center
17:54 38.0217 -95.8089 288° West 404 465 38,000  Level Kansas City Center
17:55 38.0544 -95.9375 288° West 402 463 38,000  Level Kansas City Center
17:56 38.0931 -96.0897 288° West 405 466 38,000  Level Kansas City Center
17:57 38.1261 -96.2250 287° West 407 468 38,000  Level Kansas City Center
17:58 38.1608 -96.3617 288° West 408 470 38,000  Level Kansas City Center
17:59 38.1942 -96.4975 287° West 405 466 38,000  Level Kansas City Center
18:00 38.2289 -96.6325 288° West 403 464 38,000  Level Kansas City Center
18:01 38.2692 -96.7956 288° West 403 464 38,000  Level Kansas City Center
18:02 38.3014 -96.9294 287° West 399 459 38,000  Level Kansas City Center
18:03 38.3347 -97.0636 288° West 399 459 38,000 240 Level Kansas City Center
18:04 38.3669 -97.1978 287° West 398 458 38,600 540 Climbing Kansas City Center
18:05 38.3997 -97.3333 287° West 402 463 39,200 600 Climbing Kansas City Center
18:06 38.4400 -97.5011 287° West 413 475 39,900 360 Climbing Kansas City Center
18:07 38.4733 -97.6428 287° West 419 482 40,000  Climbing Kansas City Center
18:08 38.5067 -97.7825 287° West 415 478 40,000  Level Kansas City Center
18:09 38.5400 -97.9236 287° West 417 480 40,000  Level Kansas City Center
18:10 38.5722 -98.0642 286° West 416 479 40,000  Level Kansas City Center
18:11 38.6122 -98.2347 287° West 419 482 40,000  Level Kansas City Center
18:12 38.6453 -98.3772 287° West 420 483 40,000  Level Kansas City Center
18:14 38.6781 -98.5183 287° West 417 480 40,000  Level Kansas City Center
18:15 38.7100 -98.6589 286° West 413 475 40,000  Level Kansas City Center
18:16 38.7414 -98.7972 286° West 407 468 40,000  Level Kansas City Center
18:17 38.7714 -98.9333 286° West 400 460 40,000  Level Kansas City Center
18:18 38.8081 -99.0956 286° West 397 457 40,000  Level Kansas City Center
18:19 38.8381 -99.2317 286° West 396 456 40,000  Level Kansas City Center
18:20 38.8494 -99.3694 276° West 392 451 40,000  Level Kansas City Center
18:21 38.8506 -99.5083 271° West 390 449 40,000  Level Kansas City Center
18:22 38.8517 -99.6717 271° West 392 451 40,000  Level Kansas City Center
18:23 38.8519 -99.8056 270° West 393 452 40,000  Level Kansas City Center
18:24 38.8542 -99.9403 271° West 395 455 40,000  Level Kansas City Center
18:25 38.8544 -100.0981 270° West 401 461 40,000  Level Denver Center
18:26 38.8544 -100.2561 270° West 399 459 40,000  Level Denver Center
18:27 38.8550 -100.3939 270° West 403 464 40,000  Level Denver Center
18:28 38.8556 -100.5525 270° West 402 463 40,000  Level Denver Center
18:29 38.8553 -100.6892 270° West 401 461 40,000  Level Denver Center
18:30 38.8544 -100.8494 270° West 404 465 40,000  Level Denver Center
18:31 38.8542 -100.9628 270° West 403 464 40,000  Level Denver Center
18:32 38.8539 -101.1228 270° West 403 464 40,000 -540 Level Denver Center
18:33 38.8531 -101.2806 270° West 400 460 38,900 -1,020 Descending Denver Center
18:34 38.8525 -101.4133 270° West 393 452 38,000 -900 Descending Denver Center
18:35 38.8508 -101.5689 269° West 393 452 37,100 -900 Descending Denver Center
18:36 38.8500 -101.6986 270° West 384 442 36,200 -1,080 Descending Denver Center
18:37 38.8483 -101.8436 269° West 369 425 35,000 -1,080 Descending Denver Center
18:38 38.8469 -101.9650 269° West 361 415 34,000 -1,020 Descending Denver Center
18:39 38.8453 -102.1044 269° West 351 404 32,900 -960 Descending Denver Center
18:40 38.8467 -102.2261 271° West 357 411 32,100 -960 Descending Denver Center
18:41 38.8886 -102.3728 290° West 390 449 31,000 -1,020 Descending Denver Center
18:42 38.9253 -102.4933 291° West 381 438 30,000 -540 Descending Denver Center
18:43 38.9692 -102.6314 292° West 377 434 30,000  Level Denver Center
18:44 39.0133 -102.7583 294° West 381 438 30,000  Level Denver Center
18:46 39.0547 -102.8872 293° West 388 447 30,000  Level Denver Center
18:47 39.0989 -103.0164 294° West 390 449 30,000  Level Denver Center
18:48 39.1339 -103.1250 293° West 392 451 30,000  Level Denver Center
18:49 39.1839 -103.2786 293° West 396 456 30,000 -120 Level Denver Center
18:50 39.2264 -103.4075 293° West 386 444 29,800 -1,080 Descending Denver Center
18:51 39.2644 -103.5264 292° West 359 413 27,800 -1,860 Descending Denver Center
18:52 39.3019 -103.6439 292° West 354 407 26,000 -1,800 Descending Denver Center
18:53 39.3431 -103.7717 293° West 329 379 24,100 -1,740 Descending Denver Center
18:54 39.3753 -103.8719 293° West 304 350 22,500 -1,560 Descending Denver Center
18:55 39.4128 -103.9719 296° West 316 364 21,000 -1,500 Descending Denver Center
18:56 39.4694 -104.0583 310° West 316 364 19,400 -1,680 Descending Denver Center
18:57 39.5244 -104.1550 306° West 311 358 17,600 -1,200 Descending Denver Center
18:58 39.5772 -104.2389 309° West 305 351 17,000 -540 Descending Denver Center
18:59 39.6297 -104.3283 307° West 311 358 16,500 -1,080 Descending Denver Center
19:00 39.6861 -104.4222 308° West 307 353 14,800 -1,560 Descending Denver Center
19:01 39.7381 -104.5064 309° West 300 345 13,300 -1,500 Descending Denver Center
19:02 39.8278 -104.5233 352° North 331 381 11,800 -1,140 Descending Denver Center
19:03 39.9056 -104.5222 North 333 383 11,000 -900 Descending Denver Center
19:03 39.9667 -104.5167 North 308 354 10,600 -1,320 Descending Denver TRACON
19:04 40.0333 -104.5500 339° North 267 307 9,200 -1,800 Descending Denver TRACON
19:05 40.0500 -104.6167 288° West 229 264 7,200 -1,320 Descending Denver TRACON
19:06 40.0267 -104.6711 241° Southwest 216 249 7,000 -180 Descending Denver Center
19:07 39.9761 -104.6858 193° South 188 216 6,900 -540 Descending Denver Center
19:08 39.9267 -104.6872 181° South 165 190 6,000 -780 Descending Denver Center
19:09 39.8814 -104.6875 180° South 156 180 5,300 -720 Descending Denver Center
19:11 39.8617 -104.6732 North  Level Estimated
19:18 39.8617 -104.6732 North  Level Estimated
19:19 39.8617 -104.6732 North  Level Estimated
19:20 39.8617 -104.6732 North  Level Estimated